Flag for Lithuania Weather past 2 weeks in Vilnius, Lithuania

Now
82 °F

Broken clouds.


Feels Like: 83 °F
Forecast: 67 / 83 °F
Wind: 8 mph from Southwest

Location: Vilnius Airport

Current Time: Jul 31, 2014 at 5:04:29 PM

Latest Report: Jul 31, 2014 at 4:20 PM


Visibility: N/A

Pressure: 29.83 "Hg

Humidity: 48%

Dew point: 61 °F

Location of VilniusLocation

Historic Weather in Vilnius — Graph

°F

Vilnius temperature yesterday

Maximum temperature yesterday: 88 °F (at 3:50 PM)
Minimum temperature yesterday: 63 °F (at 5:20 AM)
Average temperature yesterday: 76 °F

Past Weeks' High & Low Weather Summary

 TemperatureHumidityPressure
High88 °F (Jul 29, 1:20 PM)100% (Jul 17, 3:58 AM)30.18 "Hg (Jul 17, 3:58 AM)
Low50 °F (Jul 19, 4:50 AM)24% (Jul 30, 5:50 PM)29.83 "Hg (Jul 31, 3:50 AM)
Average71 °F61%30.04 "Hg
* Reported Jul 16 3:20 PM — Jul 31 3:50 PM, Vilnius, Weather by CustomWeather, © 2014

Note: Actual official high and low records may vary slightly from our data, if they occured in-between our weather recording intervals... More about our weather records

Advertising

Vilnius weather history for previous 24 hours

 ConditionsComfort  
Time TempWeatherWind HumidityBarometerVisibility
3:50 PM
Jul 31
82 °FBroken clouds.9 mph48%29.83 "HgN/A
3:20 PM86 °FBroken clouds.13 mph40%29.83 "HgN/A
2:50 PM82 °FBroken clouds.12 mph48%29.83 "HgN/A
2:20 PM82 °FSunny.14 mph51%29.83 "Hg10 mi
1:50 PM82 °FSunny.14 mph51%29.86 "Hg10 mi
1:20 PM81 °FPartly sunny.14 mph54%29.86 "HgN/A
12:50 PM79 °FPartly sunny.13 mph54%29.86 "HgN/A
12:20 PM77 °FBroken clouds.12 mph61%29.86 "HgN/A
11:50 AM75 °FBroken clouds.13 mph61%29.86 "HgN/A
11:20 AM72 °FBroken clouds.9 mph78%29.83 "HgN/A
10:50 AM72 °FBroken clouds.14 mph78%29.86 "HgN/A
10:20 AM70 °FBroken clouds.9 mph83%29.86 "HgN/A
9:50 AM66 °FBroken clouds.12 mph88%29.86 "HgN/A
9:20 AM66 °FSprinkles. Mostly cloudy.13 mph88%29.86 "Hg5 mi
8:50 AM68 °FPartly sunny.13 mph78%29.86 "HgN/A
8:20 AM66 °FScattered showers. Partly sunny.9 mph83%29.86 "HgN/A
7:50 AM66 °FSprinkles. Partly sunny.10 mph78%29.86 "Hg5 mi
7:20 AM70 °FBroken clouds.8 mph64%29.86 "HgN/A
6:50 AM68 °FBroken clouds.6 mph64%29.86 "HgN/A
6:20 AM68 °FPassing clouds.6 mph64%29.86 "HgN/A
5:50 AM68 °FClear.7 mph60%29.83 "Hg10 mi
5:20 AM68 °FClear.5 mph60%29.83 "Hg10 mi
4:50 AM68 °FClear.6 mph60%29.83 "Hg10 mi
4:20 AM68 °FClear.6 mph56%29.83 "Hg10 mi
3:50 AM70 °FClear.6 mph53%29.83 "Hg10 mi
3:20 AM70 °FClear.5 mph53%29.86 "Hg10 mi
2:50 AM68 °FClear.6 mph56%29.86 "Hg10 mi
2:20 AM70 °FClear.8 mph53%29.86 "Hg10 mi
1:50 AM70 °FPassing clouds.5 mph53%29.86 "HgN/A
1:20 AM70 °FClear.7 mph50%29.86 "Hg10 mi
12:50 AM72 °FClear.7 mph47%29.86 "Hg10 mi
12:20 AM73 °FClear.10 mph44%29.86 "Hg10 mi
11:50 PM
Jul 30
73 °FClear.8 mph41%29.86 "Hg10 mi
11:20 PM73 °FClear.7 mph41%29.86 "Hg10 mi
10:50 PM73 °FClear.8 mph41%29.86 "Hg10 mi
10:20 PM75 °FSunny.9 mph39%29.86 "Hg10 mi
9:50 PM75 °FSunny.8 mph39%29.86 "Hg10 mi
9:20 PM77 °FSunny.8 mph39%29.86 "Hg10 mi
8:50 PM77 °FSunny.8 mph42%29.86 "Hg10 mi
8:20 PM79 °FSunny.7 mph37%29.86 "Hg10 mi
7:50 PM82 °FSunny.8 mph30%29.86 "Hg10 mi
7:20 PM84 °FSunny.10 mph27%29.86 "Hg10 mi
6:50 PM86 °FSunny.12 mph25%29.86 "Hg10 mi
6:20 PM86 °FSunny.13 mph25%29.86 "Hg10 mi
5:50 PM86 °FSunny.12 mph24%29.86 "Hg10 mi
5:20 PM86 °FSunny.12 mph25%29.86 "Hg10 mi
Weather by CustomWeather, © 2014

See weather overviewHow to use our weather pages